When you browse on this site, cookies collect data to enhance your experience and personalize the content and advertising you see.
Visit our Privacy Policy to learn more. By continuing to use the site, you agree to this use of cookies and data.

Stündliche Wetter Makiivka

Heute, 13 August, Donnerstag

Zeit Temperatur Niederschläge Wind Luftdruck Luftfeuchtigkeit
00:00 +19°C° 0 mm 4 m/S 741 mmHg 64%
01:00 +19°C° 0 mm 3 m/S 741 mmHg 65%
02:00 +18°C° 0 mm 3 m/S 742 mmHg 67%
03:00 +17°C° 0 mm 3 m/S 741 mmHg 68%
04:00 +17°C° 0 mm 3 m/S 742 mmHg 70%
05:00 +16°C° 0 mm 3 m/S 742 mmHg 71%
06:00 +16°C° 0 mm 3 m/S 742 mmHg 73%
07:00 +17°C° 0 mm 3 m/S 742 mmHg 66%
08:00 +19°C° 0 mm 3 m/S 742 mmHg 59%
09:00 +20°C° 0 mm 4 m/S 742 mmHg 49%
10:00 +21°C° 0 mm 4 m/S 742 mmHg 45%
11:00 +22°C° 0 mm 4 m/S 742 mmHg 41%
12:00 +23°C° 0 mm 4 m/S 742 mmHg 37%
13:00 +25°C° 0 mm 4 m/S 742 mmHg 37%
14:00 +25°C° 0 mm 5 m/S 742 mmHg 37%
15:00 +25°C° 0 mm 5 m/S 742 mmHg 37%
16:00 +23°C° 0 mm 5 m/S 742 mmHg 38%
17:00 +23°C° 0 mm 5 m/S 742 mmHg 39%
18:00 +23°C° 0 mm 5 m/S 742 mmHg 41%
19:00 +21°C° 0 mm 4 m/S 742 mmHg 46%
20:00 +20°C° 0 mm 4 m/S 742 mmHg 50%
21:00 +18°C° 0 mm 3 m/S 743 mmHg 55%
22:00 +18°C° 0 mm 3 m/S 743 mmHg 57%
23:00 +17°C° 0 mm 2 m/S 743 mmHg 60%

Morgen, 14 August, Freitag

Zeit Temperatur Niederschläge Wind Luftdruck Luftfeuchtigkeit
00:00 +16°C° 0 mm 2 m/S 743 mmHg 62%
01:00 +16°C° 0 mm 2 m/S 743 mmHg 64%
02:00 +16°C° 0 mm 2 m/S 743 mmHg 65%
03:00 +15°C° 0 mm 2 m/S 743 mmHg 66%
04:00 +15°C° 0 mm 2 m/S 743 mmHg 67%
05:00 +15°C° 0 mm 2 m/S 743 mmHg 67%
06:00 +15°C° 0 mm 2 m/S 743 mmHg 68%
07:00 +16°C° 0 mm 2 m/S 743 mmHg 62%
08:00 +18°C° 0 mm 2 m/S 743 mmHg 56%
09:00 +19°C° 0 mm 2 m/S 743 mmHg 50%
10:00 +20°C° 0 mm 3 m/S 743 mmHg 48%
11:00 +20°C° 0 mm 3 m/S 743 mmHg 46%
12:00 +21°C° 0 mm 3 m/S 743 mmHg 44%
13:00 +21°C° 0 mm 4 m/S 743 mmHg 43%
14:00 +21°C° 0 mm 4 m/S 743 mmHg 42%
15:00 +22°C° 0 mm 4 m/S 743 mmHg 42%
16:00 +21°C° 0 mm 4 m/S 743 mmHg 41%
17:00 +21°C° 0 mm 4 m/S 743 mmHg 40%
18:00 +21°C° 0 mm 4 m/S 743 mmHg 40%
19:00 +20°C° 0 mm 3 m/S 743 mmHg 43%
20:00 +19°C° 0 mm 3 m/S 743 mmHg 47%
21:00 +17°C° 0 mm 3 m/S 743 mmHg 51%
22:00 +17°C° 0 mm 3 m/S 743 mmHg 55%
23:00 +16°C° 0 mm 3 m/S 744 mmHg 60%

übermorgen, 15 August, Samstag

Zeit Temperatur Niederschläge Wind Luftdruck Luftfeuchtigkeit
00:00 +14°C° 0 mm 3 m/S 744 mmHg 65%
01:00 +14°C° 0 mm 3 m/S 744 mmHg 69%
02:00 +13°C° 0 mm 3 m/S 744 mmHg 74%
03:00 +14°C° 0 mm 2 m/S 744 mmHg 78%
04:00 +14°C° 0 mm 2 m/S 744 mmHg 79%
05:00 +13°C° 0 mm 2 m/S 744 mmHg 79%
06:00 +13°C° 0 mm 2 m/S 745 mmHg 80%
07:00 +14°C° 0 mm 3 m/S 745 mmHg 70%
08:00 +17°C° 0 mm 3 m/S 745 mmHg 60%
09:00 +19°C° 0 mm 4 m/S 745 mmHg 50%
10:00 +20°C° 0 mm 4 m/S 745 mmHg 45%
11:00 +21°C° 0 mm 4 m/S 745 mmHg 40%
12:00 +22°C° 0 mm 4 m/S 745 mmHg 35%
13:00 +22°C° 0 mm 4 m/S 745 mmHg 33%
14:00 +23°C° 0 mm 4 m/S 745 mmHg 32%
15:00 +25°C° 0 mm 4 m/S 745 mmHg 31%
16:00 +23°C° 0 mm 4 m/S 745 mmHg 32%
17:00 +23°C° 0 mm 5 m/S 745 mmHg 33%
18:00 +22°C° 0 mm 5 m/S 745 mmHg 34%
19:00 +20°C° 0 mm 4 m/S 745 mmHg 38%
20:00 +19°C° 0 mm 3 m/S 745 mmHg 42%
21:00 +17°C° 0 mm 3 m/S 745 mmHg 46%
22:00 +17°C° 0 mm 2 m/S 745 mmHg 48%
23:00 +16°C° 0 mm 2 m/S 745 mmHg 50%

16 August, Sonntag

Zeit Temperatur Niederschläge Wind Luftdruck Luftfeuchtigkeit
00:00 +16°C° 0 mm 2 m/S 745 mmHg 51%
01:00 +15°C° 0 mm 2 m/S 745 mmHg 53%
02:00 +15°C° 0 mm 1 m/S 745 mmHg 55%
03:00 +15°C° 0 mm 1 m/S 745 mmHg 57%
04:00 +15°C° 0 mm 1 m/S 745 mmHg 58%
05:00 +14°C° 0 mm 2 m/S 745 mmHg 60%
06:00 +14°C° 0 mm 2 m/S 745 mmHg 61%
07:00 +16°C° 0 mm 2 m/S 745 mmHg 56%
08:00 +18°C° 0 mm 2 m/S 746 mmHg 50%
09:00 +20°C° 0 mm 3 m/S 746 mmHg 44%
10:00 +21°C° 0 mm 3 m/S 746 mmHg 40%
11:00 +22°C° 0 mm 3 m/S 746 mmHg 37%
12:00 +25°C° 0 mm 3 m/S 746 mmHg 33%
13:00 +25°C° 0 mm 3 m/S 746 mmHg 32%
14:00 +25°C° 0 mm 3 m/S 746 mmHg 32%
15:00 +26°C° 0 mm 3 m/S 746 mmHg 31%
16:00 +26°C° 0 mm 3 m/S 745 mmHg 32%
17:00 +25°C° 0 mm 3 m/S 745 mmHg 34%
18:00 +25°C° 0 mm 3 m/S 745 mmHg 35%
19:00 +24°C° 0 mm 3 m/S 745 mmHg 39%
20:00 +21°C° 0 mm 2 m/S 745 mmHg 43%
21:00 +20°C° 0 mm 2 m/S 745 mmHg 47%
22:00 +20°C° 0 mm 1 m/S 745 mmHg 49%
23:00 +20°C° 0 mm 1 m/S 745 mmHg 51%

17 August, Montag

Zeit Temperatur Niederschläge Wind Luftdruck Luftfeuchtigkeit
00:00 +20°C° 0 mm 1 m/S 745 mmHg 53%
01:00 +19°C° 0 mm 1 m/S 745 mmHg 55%
02:00 +18°C° 0 mm 2 m/S 745 mmHg 58%
03:00 +17°C° 0 mm 2 m/S 745 mmHg 61%
04:00 +17°C° 0 mm 2 m/S 745 mmHg 63%
05:00 +17°C° 0 mm 2 m/S 745 mmHg 65%
06:00 +17°C° 0 mm 2 m/S 745 mmHg 68%
07:00 +19°C° 0 mm 2 m/S 745 mmHg 63%
08:00 +21°C° 0 mm 2 m/S 745 mmHg 58%
09:00 +24°C° 0 mm 2 m/S 746 mmHg 53%
10:00 +25°C° 0 mm 2 m/S 745 mmHg 49%
11:00 +27°C° 0 mm 3 m/S 745 mmHg 44%
12:00 +28°C° 0 mm 3 m/S 745 mmHg 39%
13:00 +29°C° 0 mm 3 m/S 745 mmHg 37%
14:00 +29°C° 0 mm 3 m/S 745 mmHg 35%
15:00 +30°C° 0 mm 3 m/S 744 mmHg 33%
16:00 +30°C° 0 mm 2 m/S 744 mmHg 34%
17:00 +29°C° 0 mm 2 m/S 744 mmHg 35%
18:00 +29°C° 0 mm 2 m/S 743 mmHg 36%
19:00 +27°C° 0 mm 2 m/S 743 mmHg 41%
20:00 +26°C° 0 mm 2 m/S 743 mmHg 45%
21:00 +24°C° 0 mm 1 m/S 743 mmHg 50%
22:00 +24°C° 0 mm 1 m/S 743 mmHg 51%
23:00 +23°C° 0 mm 1 m/S 743 mmHg 53%

18 August, Dienstag

Zeit Temperatur Niederschläge Wind Luftdruck Luftfeuchtigkeit
00:00 +23°C° 0 mm 1 m/S 743 mmHg 55%
01:00 +22°C° 0 mm 1 m/S 743 mmHg 56%
02:00 +22°C° 0 mm 1 m/S 743 mmHg 58%
03:00 +19°C° 0 mm 0 m/S 743 mmHg 60%
04:00 +19°C° 0 mm 0 m/S 742 mmHg 60%
05:00 +19°C° 0 mm 0 m/S 742 mmHg 61%
06:00 +19°C° 0 mm 0 m/S 742 mmHg 62%
07:00 +21°C° 0 mm 0 m/S 742 mmHg 55%
08:00 +23°C° 0 mm 0 m/S 742 mmHg 49%
09:00 +26°C° 0 mm 0 m/S 742 mmHg 42%
10:00 +27°C° 0 mm 0 m/S 742 mmHg 38%
11:00 +28°C° 0 mm 0 m/S 742 mmHg 34%
12:00 +30°C° 0 mm 0 m/S 742 mmHg 31%
13:00 +32°C° 0 mm 1 m/S 741 mmHg 30%
14:00 +32°C° 0 mm 1 m/S 741 mmHg 30%
15:00 +31°C° 0 mm 1 m/S 740 mmHg 30%
16:00 +31°C° 0 mm 1 m/S 740 mmHg 30%
17:00 +31°C° 0 mm 1 m/S 740 mmHg 31%
18:00 +31°C° 0 mm 1 m/S 740 mmHg 32%
19:00 +29°C° 0 mm 1 m/S 740 mmHg 35%
20:00 +28°C° 0 mm 1 m/S 740 mmHg 37%
21:00 +26°C° 0 mm 1 m/S 740 mmHg 40%
22:00 +26°C° 0 mm 1 m/S 739 mmHg 42%
23:00 +25°C° 0 mm 1 m/S 739 mmHg 44%
Mehr zeigen